BELINTERSAT-1

Last updated on Wed Sep 09 2026 00:03:01 GMT+0000 (Coordinated Universal Time)

1 41238U 16001A 26251.45521987 .00000086 00000+0 00000+0 0 9995 2 41238 0.0132 91.1654 0001081 2.6983 109.0509 1.00270947 39073
UTC large
Height (km)
Speed (km/s)
/
Latitude / Longitude
Inclination (degrees)
Orbital Period (minutes)
Azimuth
Elevation
Range (km)
Doppler Factor

Next 0 passes for location: London (51.5072 / 0.1276)

No passes found over London.
BELINTERSAT-1